Location: Newark
(47.5008°N, 9.7480°E)
Time: 15:19:36
(UTC+00:00)

ISS - Pass Details

Date: 28 July 2019
Orbit: 410 x 420 km, 51.6° (Epoch: 23 August)

Event Time Altitude Azimuth Distance (km) Brightness Sun altitude
Rises 20:38:36 0° 293° (WNW) 2,374 1.3 -13.6°
Reaches altitude 10° 20:40:44 10° 297° (WNW) 1,506 0.2 -13.8°
Maximum altitude 20:44:05 61° 18° (NNE) 481 -3.4 -14.2°
Enters shadow 20:46:12 20° 95° (E) 1,021 -2.2 -14.4°
